Regional Weather Roundup
Issued by NWS

Home | Current Version | Previous Version | Graphics & Text | Print | Product List | Glossary On
Versions: 1 2 3 4 5 6 7 8 9 10 11 12 13 14 15 16 17 18 19 20 21 22 23 24 25 26 27 28 29 30 31 32 33 34 35 36 37 38 39 40 41 42 43 44 45 46 47 48 49 50
825
ASUS44 KJAN 291110
RWRMS

MISSISSIPPI HOURLY WEATHER ROUNDUP
NATIONAL WEATHER SERVICE JACKSON MS
500 AM CST THU JAN 29 2015

NOTE: "FAIR: INDICATES FEW OR NO CLOUDS BELOW 12,000 FEET WITH NO
SIGNIFICANT WEATHER AND/OR OBSTRUCTIONS TO VISIBILITY.

MSZ001>002-007>008-010>013-018>021-025>028-034>036-291200-
NORTHWEST MISSISSIPPI

CITY           SKY/WX    TMP DP  RH WIND       PRES   REMARKS
CLARKSDALE     CLOUDY    54  45  71 S15       30.07S
CLEVELAND      PTSUNNY   51  46  82 S8        30.09S
GREENWOOD      MOCLDY    54  35  48 S14       30.11F
GREENVILLE     CLOUDY    55  44  66 S18       30.08F
GRENADA        PTSUNNY   54  34  47 SW6       30.11S
OLIVE BRANCH   MOCLDY    55  41  58 S24G31    30.03F
OXFORD         FAIR      50  37  62 S8        30.10S
TUNICA         CLOUDY    54  43  66 S13G18    30.05F
$$

MSZ003>006-009-014>017-022>024-029>033-037>039-291200-
NORTHEAST MISSISSIPPI

CITY           SKY/WX    TMP DP  RH WIND       PRES   REMARKS
COLUMBUS AFB   MOCLDY    45  31  58 S8        30.17F
CORINTH        PTSUNNY   48  34  57 S14       30.08F
GOLDN TRIANGLE MOCLDY    45  30  57 S13       30.15F
STARKVILLE     FAIR      45  34  65 S3        30.17R
TUPELO         CLOUDY    46  32  58 SW9       30.12S
$$

MSZ040-058-291200-
CENTRAL MISSISSIPPI

CITY           SKY/WX    TMP DP  RH WIND       PRES   REMARKS
JACKSON INTL   CLEAR     47  39  74 S7        30.18S
JACKSON HAWKNS NOT AVBL
MERIDIAN KEY   CLEAR     39  34  82 S3        30.22R
MERIDIAN NAS   CLEAR     37  32  82 CALM      30.22R
RAYMOND        FAIR      45  39  81 MISG      30.18S
VICKSBURG      PTCLDY    50  42  74 S8        30.16S
$$

MSZ059>079-291200-
SOUTH MISSISSIPPI

CITY           SKY/WX    TMP DP  RH WIND       PRES   REMARKS
BROOKHAVEN       N/A     48  46  93 S5        30.21R
HATTIESBURG    CLEAR     37  35  92 SE5       30.24S WCI  33
MCCOMB         CLEAR     45  41  86 CALM      30.19F
NATCHEZ        CLEAR     50  45  81 S6        30.19S
PINE BELT      CLEAR     36  34  93 S6        30.22F WCI  31
$$

MSZ080>082-291200-
COASTAL MISSISSIPPI

CITY           SKY/WX    TMP DP  RH WIND       PRES   REMARKS
BILOXI         CLEAR     45  45 100 NE2       30.24R
PASCAGOULA     CLEAR     36  35  96 CALM      30.25S
GULFPORT       CLEAR     40  38  93 CALM      30.24S
$$



USA.gov is the U.S. government's official web portal to all federal, state and local government web resources and services.